This is the latest recevied weather packets stored in our database for station/object KG4YZY-1. If no packets are shown the sender has not sent any weather packets the latest 10 day(s).
| Time | Temp. | Humidity | Pressure | Rain* | Wind** | Luminosity | Snow |
|---|---|---|---|---|---|---|---|
| 1788035104 | 31.11° C | 78% | 1017.9 hPa | 0.25 mm | - | - | - |
| 1788034803 | 31.11° C | 75% | 1017.8 hPa | 0.25 mm | - | - | - |
| 1788034504 | 31.67° C | 73% | 1017.9 hPa | 0 mm | - | - | - |
| 1788034203 | 32.22° C | 70% | 1017.9 hPa | 0 mm | - | - | - |
| 1788033904 | 32.22° C | 69% | 1017.9 hPa | 0 mm | - | - | - |
| 1788033603 | 32.78° C | 68% | 1018.1 hPa | 0 mm | - | - | - |
| 1788033304 | 32.78° C | 69% | 1018 hPa | 0 mm | - | - | - |
| 1788033003 | 32.78° C | 68% | 1017.8 hPa | 0 mm | - | - | - |
| 1788032703 | 32.78° C | 67% | 1017.9 hPa | 0 mm | - | - | - |
| 1788032403 | 32.22° C | 69% | 1017.8 hPa | 0 mm | - | - | - |
| 1788032103 | 32.22° C | 70% | 1017.9 hPa | 0 mm | - | - | - |
| 1788031803 | 31.67° C | 69% | 1018 hPa | 0 mm | - | - | - |
| 1788031504 | 31.67° C | 69% | 1018.1 hPa | 0 mm | - | - | - |
| 1788031203 | 32.22° C | 68% | 1018 hPa | 0 mm | - | - | - |
| 1788030903 | 32.22° C | 70% | 1018 hPa | 0 mm | - | - | - |
| 1788030603 | 32.22° C | 69% | 1018 hPa | 0 mm | - | - | - |
| 1788030304 | 32.22° C | 70% | 1017.9 hPa | 0 mm | - | - | - |
| 1788030004 | 32.22° C | 70% | 1018 hPa | 0 mm | - | - | - |
| 1788029703 | 32.22° C | 70% | 1018.2 hPa | 0 mm | - | - | - |
| 1788029404 | 31.67° C | 70% | 1018.3 hPa | 0 mm | - | - | - |
| 1788029104 | 32.22° C | 69% | 1018.3 hPa | 0 mm | - | - | - |
| 1788028803 | 32.22° C | 68% | 1018.4 hPa | 0 mm | - | - | - |
| 1788028504 | 32.78° C | 67% | 1018.5 hPa | 0 mm | - | - | - |
| 1788028204 | 33.33° C | 66% | 1018.6 hPa | 0 mm | - | - | - |
| 1788027903 | 33.33° C | 65% | 1018.6 hPa | 0 mm | - | - | - |
* Rain latest hour (hover to see other rain measurements)
** Current wind speed in m/s (hover to see current wind gust speed)